K0WOI Weather Reports


time (UTC)temp
F
wind
direction
speed
knots
gust
knots
rain 1hr
in
rain 24hr
in
rain mn
in
humidity
%
barometer
mb
20260507093543 42 319 0.0 0.9 0.00 0.00 0.00 66 1012.1
20260507093042 42 318 0.0 0.9 0.00 0.00 0.00 66 1012.2
20260507092538 42 318 0.9 0.9 0.00 0.00 0.00 65 1012.2
20260507092035 42 317 0.0 0.9 0.00 0.00 0.00 65 1012.1
20260507091531 43 317 0.0 0.9 0.00 0.00 0.00 64 1012.3
20260507091028 43 315 0.0 0.9 0.00 0.00 0.00 63 1012.4
20260507090523 43 313 0.0 0.0 0.00 0.00 0.00 62 1012.8
20260507090020 43 312 0.0 0.9 0.00 0.00 0.00 61 1012.6
20260507085518 44 311 0.9 0.9 0.00 0.00 0.00 61 1012.6
20260507085014 44 309 0.0 0.0 0.00 0.00 0.00 60 1013.0
20260507084511 44 308 0.9 0.9 0.00 0.00 0.00 59 1013.1
20260507084008 44 308 0.9 0.9 0.00 0.00 0.00 59 1013.2
20260507083504 44 308 0.0 0.0 0.00 0.00 0.00 59 1013.1
20260507083001 44 307 0.0 0.9 0.00 0.00 0.00 59 1013.4
20260507082457 44 309 0.0 0.0 0.00 0.00 0.00 60 1013.3
20260507081953 44 313 0.0 0.0 0.00 0.00 0.00 60 1013.5
20260507081450 44 318 0.0 0.9 0.00 0.00 0.00 60 1013.4
20260507080947 44 326 0.0 0.0 0.00 0.00 0.00 59 1013.4
20260507080443 43 326 0.0 0.9 0.00 0.00 0.00 59 1013.4
20260507075938 43 326 0.0 0.0 0.00 0.00 0.00 59 1013.3
20260507075435 43 326 0.0 0.0 0.00 0.00 0.00 60 1013.4
20260507074931 42 326 0.0 0.9 0.00 0.00 0.00 61 1013.3
20260507074428 42 326 0.9 0.9 0.00 0.00 0.00 63 1013.7
20260507073926 42 326 0.0 0.9 0.00 0.00 0.00 63 1013.6
20260507073422 42 326 0.0 0.0 0.00 0.00 0.00 64 1013.8
20260507072919 42 326 0.0 0.0 0.00 0.00 0.00 63 1013.7
20260507072417 42 325 0.0 0.0 0.00 0.00 0.00 64 1013.9
20260507071915 42 325 0.9 0.9 0.00 0.00 0.00 63 1013.8
20260507071411 42 325 0.0 0.0 0.00 0.00 0.00 64 1014.0
20260507070907 42 325 0.9 0.9 0.00 0.00 0.00 64 1014.2
20260507070405 42 325 0.9 0.9 0.00 0.00 0.00 64 1014.0
20260507065901 42 325 0.9 0.9 0.00 0.00 0.00 65 1014.0
20260507065358 41 325 0.9 0.9 0.00 0.00 0.00 65 1014.3
20260507064855 41 325 0.0 0.0 0.00 0.00 0.00 66 1014.2
20260507064353 41 324 0.0 0.9 0.00 0.00 0.00 67 1014.2
20260507063851 41 324 0.0 0.9 0.00 0.00 0.00 67 1014.2
20260507063348 41 324 0.0 0.0 0.00 0.00 0.00 66 1014.3
20260507062845 41 324 0.0 0.0 0.00 0.00 0.00 66 1014.1
20260507062341 41 324 0.0 0.0 0.00 0.00 0.00 65 1014.4
20260507061839 41 324 0.9 0.9 0.00 0.00 0.00 65 1014.4
20260507061337 41 324 0.0 0.0 0.00 0.00 0.00 65 1014.3
20260507060835 41 324 0.9 0.9 0.00 0.00 0.00 66 1014.4
20260507060332 41 323 0.0 0.9 0.00 0.00 0.00 66 1014.4
20260507055828 41 322 0.9 0.9 0.00 0.00 0.00 66 1014.4
20260507055323 41 321 0.0 0.9 0.00 0.00 0.00 68 1014.4
20260507054820 41 321 0.9 0.9 0.00 0.00 0.00 68 1014.7
20260507054316 41 321 0.0 0.9 0.00 0.00 0.00 68 1014.9
20260507053814 41 320 0.9 0.9 0.00 0.00 0.00 68 1014.7
20260507053312 41 319 0.9 0.9 0.00 0.00 0.00 68 1014.9
20260507052811 41 319 0.0 0.9 0.00 0.00 0.00 68 1015.0
20260507052307 41 319 0.0 0.0 0.00 0.00 0.00 67 1014.7
20260507051805 41 319 0.0 0.9 0.00 0.00 0.00 68 1014.5
20260507051302 41 319 0.0 0.9 0.00 0.00 0.00 69 1014.7
20260507050759 40 319 0.9 0.9 0.00 0.00 0.00 71 1014.8
20260507050255 40 319 0.9 0.9 0.00 0.00 0.00 73 1014.7
20260507045752 40 319 0.0 0.0 0.00 0.00 0.00 73 1014.8
20260507045249 39 319 0.0 0.9 0.00 0.00 0.00 75 1014.5
20260507044746 39 319 0.0 0.0 0.00 0.00 0.00 78 1014.8
20260507044242 39 319 0.0 0.0 0.00 0.00 0.00 79 1014.9
20260507043738 39 319 0.0 0.0 0.00 0.00 0.00 80 1014.9
20260507043235 40 319 0.0 0.0 0.00 0.00 0.00 76 1015.0
20260507042731 40 319 0.0 0.0 0.00 0.00 0.00 73 1015.1
20260507042226 40 319 0.0 0.0 0.00 0.00 0.00 77 1015.1
20260507041724 41 319 0.0 0.0 0.00 0.00 0.00 72 1015.2
20260507041221 40 319 0.0 0.0 0.00 0.00 0.00 73 1015.0
20260507040718 40 319 0.0 0.0 0.00 0.00 0.00 75 1015.1
20260507040214 40 319 0.0 0.0 0.00 0.00 0.00 76 1015.3
20260507035709 39 319 0.0 0.0 0.00 0.00 0.00 78 1015.3
20260507035159 39 319 0.0 0.0 0.00 0.00 0.00 78 1015.2
20260507034656 39 319 0.0 0.0 0.00 0.00 0.00 80 1015.2
20260507034154 39 319 0.0 0.0 0.00 0.00 0.00 78 1015.3
20260507033652 40 319 0.0 0.0 0.00 0.00 0.00 75 1015.4
20260507033149 40 319 0.0 0.0 0.00 0.00 0.00 76 1015.3
20260507032647 40 319 0.0 0.0 0.00 0.00 0.00 78 1015.5
20260507032142 40 319 0.0 0.0 0.00 0.00 0.00 75 1015.3
20260507031639 41 319 0.0 0.0 0.00 0.00 0.00 75 1015.4
20260507031136 42 319 0.0 0.0 0.00 0.00 0.00 72 1015.5
20260507030633 42 319 0.0 0.0 0.00 0.00 0.00 70 1015.3
20260507030131 42 319 0.0 0.0 0.00 0.00 0.00 67 1015.4
20260507025627 42 319 0.0 0.0 0.00 0.00 0.00 66 1015.6
20260507025124 41 319 0.0 0.0 0.00 0.00 0.00 66 1015.5
20260507024622 41 319 0.0 0.0 0.00 0.00 0.00 72 1015.5
20260507024119 41 319 0.0 0.0 0.00 0.00 0.00 74 1015.6
20260507023615 41 319 0.0 0.0 0.00 0.00 0.00 72 1015.5
20260507023112 42 319 0.0 0.0 0.00 0.00 0.00 69 1015.4
20260507022609 42 319 0.0 0.0 0.00 0.00 0.00 68 1015.3
20260507022104 43 319 0.0 0.0 0.00 0.00 0.00 67 1015.3
20260507021601 43 319 0.0 0.0 0.00 0.00 0.00 64 1015.3
20260507021057 44 319 0.0 0.0 0.00 0.00 0.00 67 1015.3
20260507020555 44 319 0.0 0.0 0.00 0.00 0.00 67 1015.1
20260507020045 44 319 0.0 0.0 0.00 0.00 0.00 62 1015.3
20260507015544 45 319 0.0 0.0 0.00 0.00 0.00 60 1015.0
20260507015041 46 319 0.0 0.0 0.00 0.00 0.00 59 1015.2
20260507014538 46 319 0.0 0.0 0.00 0.00 0.00 55 1015.2
20260507014033 47 319 0.0 0.0 0.00 0.00 0.00 51 1015.2
20260507013530 48 319 0.0 0.0 0.00 0.00 0.00 45 1015.1
20260507013027 48 319 0.0 0.0 0.00 0.00 0.00 43 1015.3
20260507012525 49 319 0.0 0.0 0.00 0.00 0.00 45 1015.2
20260507012021 50 319 0.0 0.0 0.00 0.00 0.00 43 1015.1
20260507011518 50 319 0.0 0.0 0.00 0.00 0.00 40 1015.3
20260507011014 51 319 0.0 0.0 0.00 0.00 0.00 40 1015.3
20260507010509 52 319 0.0 0.0 0.00 0.00 0.00 40 1015.3
20260507010006 53 319 0.0 0.0 0.00 0.00 0.00 36 1015.2
20260507005503 53 318 0.9 0.9 0.00 0.00 0.00 33 1015.1
20260507004959 54 317 0.9 0.9 0.00 0.00 0.00 34 1015.3
20260507004456 54 312 1.7 1.7 0.00 0.00 0.00 33 1015.3
20260507003954 54 319 0.9 0.9 0.00 0.00 0.00 33 1015.1
20260507003449 55 320 0.9 0.9 0.00 0.00 0.00 33 1015.2
20260507002944 55 324 0.9 0.9 0.00 0.00 0.00 34 1015.3
20260507002441 55 318 0.9 1.7 0.00 0.00 0.00 33 1015.2
20260507001938 55 316 1.7 1.7 0.00 0.00 0.00 33 1015.3
20260507001434 56 308 0.9 0.9 0.00 0.00 0.00 35 1015.5
20260507000932 56 304 1.7 2.6 0.00 0.00 0.00 30 1015.3
20260507000427 56 336 2.6 2.6 0.00 0.00 0.00 30 1015.6
20260506235923 55 317 3.5 4.3 0.00 0.00 0.00 31 1015.6
20260506235420 55 303 0.9 1.7 0.00 0.00 0.00 32 1015.6
20260506234915 55 336 2.6 5.2 0.00 0.00 0.00 33 1015.7
20260506234414 55 316 0.9 0.9 0.00 0.00 0.00 35 1015.5
20260506233911 55 324 1.7 2.6 0.00 0.00 0.00 31 1015.5
20260506233407 55 330 0.9 0.9 0.00 0.00 0.00 32 1015.7
20260506232904 55 327 1.7 1.7 0.00 0.00 0.00 31 1015.6
20260506232400 55 318 1.7 1.7 0.00 0.00 0.00 32 1015.6
20260506231856 55 312 0.9 1.7 0.00 0.00 0.00 32 1015.8
20260506231354 55 322 0.9 1.7 0.00 0.00 0.00 33 1015.7
20260506230851 55 304 2.6 2.6 0.00 0.00 0.00 31 1015.8
20260506230348 56 297 2.6 2.6 0.00 0.00 0.00 31 1016.0
20260506225844 57 333 5.2 6.1 0.00 0.00 0.00 29 1015.9
20260506225342 57 311 1.7 1.7 0.00 0.00 0.00 31 1015.8
20260506224839 55 326 1.7 2.6 0.00 0.00 0.00 31 1015.9
20260506224336 56 325 1.7 1.7 0.00 0.00 0.00 31 1015.9
20260506223832 56 323 1.7 4.3 0.00 0.00 0.00 31 1016.1
20260506223327 56 306 1.7 2.6 0.00 0.00 0.00 32 1016.0
20260506222825 56 306 0.9 1.7 0.00 0.00 0.00 31 1015.8
20260506222319 55 302 2.6 2.6 0.00 0.00 0.00 32 1015.7
20260506221813 55 353 2.6 5.2 0.00 0.00 0.00 34 1016.0
20260506221310 56 264 3.5 4.3 0.00 0.00 0.00 33 1015.8
20260506220808 56 296 2.6 2.6 0.00 0.00 0.00 30 1015.8
20260506220302 55 324 2.6 2.6 0.00 0.00 0.00 34 1015.9
20260506215759 55 313 2.6 2.6 0.00 0.00 0.00 31 1015.9
20260506215255 57 268 0.9 1.7 0.00 0.00 0.00 31 1015.8
20260506214751 57 215 5.2 7.0 0.00 0.00 0.00 30 1015.8
20260506214248 56 325 1.7 1.7 0.00 0.00 0.00 31 1016.0
20260506213746 56 234 0.9 1.7 0.00 0.00 0.00 33 1015.9
20260506213243 57 263 2.6 2.6 0.00 0.00 0.00 33 1015.9
20260506212741 56 256 2.6 2.6 0.00 0.00 0.00 32 1015.9
20260506212236 55 277 1.7 1.7 0.00 0.00 0.00 32 1016.1
20260506211731 55 324 2.6 4.3 0.00 0.00 0.00 33 1016.2
20260506211228 55 276 1.7 1.7 0.00 0.00 0.00 36 1016.2
20260506210725 55 325 5.2 7.8 0.00 0.00 0.00 33 1016.4
20260506210222 54 310 2.6 2.6 0.00 0.00 0.00 34 1016.3
20260506205719 56 322 4.3 8.7 0.00 0.00 0.00 32 1016.4
20260506205214 54 327 2.6 2.6 0.00 0.00 0.00 34 1016.6
20260506204712 54 279 4.3 6.1 0.00 0.00 0.00 33 1016.6
20260506204209 55 333 0.9 1.7 0.00 0.00 0.00 34 1016.4
20260506203707 55 302 1.7 1.7 0.00 0.00 0.00 32 1016.5
20260506203204 56 325 7.8 12.2 0.00 0.00 0.00 31 1016.7
20260506202702 55 273 2.6 4.3 0.00 0.00 0.00 36 1016.6
20260506202157 54 307 2.6 4.3 0.00 0.00 0.00 34 1016.7
20260506201655 56 305 1.7 2.6 0.00 0.00 0.00 35 1016.6
20260506201151 56 279 1.7 2.6 0.00 0.00 0.00 33 1016.7
20260506200648 56 297 1.7 2.6 0.00 0.00 0.00 33 1016.7
20260506200144 54 297 3.5 4.3 0.00 0.00 0.00 33 1016.9
20260506195641 55 250 6.1 8.7 0.00 0.00 0.00 33 1016.8
20260506195137 55 284 7.8 8.7 0.00 0.00 0.00 32 1017.0
20260506194635 55 315 5.2 7.0 0.00 0.00 0.00 33 1017.1
20260506194131 54 307 2.6 4.3 0.00 0.00 0.00 35 1016.9
20260506193629 53 318 1.7 1.7 0.00 0.00 0.00 34 1016.9
20260506193126 53 322 1.7 1.7 0.00 0.00 0.00 33 1017.0
20260506192623 54 275 3.5 4.3 0.00 0.00 0.00 34 1017.0
20260506192118 55 272 3.5 5.2 0.00 0.00 0.00 33 1017.4
20260506191616 55 230 5.2 7.8 0.00 0.00 0.00 35 1017.1
20260506191111 55 317 4.3 6.1 0.00 0.00 0.00 34 1017.1
20260506190609 54 280 2.6 4.3 0.00 0.00 0.00 36 1017.2
20260506190106 55 6 4.3 7.0 0.00 0.00 0.00 35 1017.0
20260506185603 55 269 2.6 4.3 0.00 0.00 0.00 35 1017.2
20260506185059 56 320 3.5 5.2 0.00 0.00 0.00 36 1017.4
20260506184556 54 297 3.5 5.2 0.00 0.00 0.00 37 1017.2
20260506184054 53 284 4.3 6.1 0.00 0.00 0.00 34 1017.2
20260506183550 54 265 2.6 2.6 0.00 0.00 0.00 37 1017.3
20260506183046 54 307 5.2 7.8 0.00 0.00 0.00 36 1017.1
20260506182544 54 212 7.0 7.8 0.00 0.00 0.00 35 1017.2
20260506182041 53 277 2.6 4.3 0.00 0.00 0.00 41 1017.2
20260506181539 53 216 5.2 7.0 0.00 0.00 0.00 36 1017.4
20260506181035 55 358 6.1 7.0 0.00 0.00 0.00 33 1017.5
20260506180532 54 332 2.6 2.6 0.00 0.00 0.00 37 1017.4
20260506180029 52 326 3.5 5.2 0.00 0.00 0.00 38 1017.8
20260506175525 53 354 7.0 7.8 0.00 0.00 0.00 36 1017.7
20260506175022 54 319 4.3 6.1 0.00 0.00 0.00 36 1017.7
20260506174521 53 273 2.6 2.6 0.00 0.00 0.00 37 1017.7
20260506174016 53 297 4.3 5.2 0.00 0.00 0.00 36 1017.7
20260506173514 53 294 2.6 4.3 0.00 0.00 0.00 38 1017.8
20260506173011 52 303 2.6 4.3 0.00 0.00 0.00 37 1018.0
20260506172508 52 309 7.8 8.7 0.00 0.00 0.00 36 1017.7
20260506172004 51 308 3.5 5.2 0.00 0.00 0.00 39 1017.9
20260506171502 51 292 1.7 2.6 0.00 0.00 0.00 39 1018.0
20260506170959 51 300 3.5 4.3 0.00 0.00 0.00 39 1017.9
20260506170455 51 319 1.7 2.6 0.00 0.00 0.00 41 1017.8
20260506165948 51 293 3.5 5.2 0.00 0.00 0.00 41 1018.1
20260506165447 51 301 1.7 1.7 0.00 0.00 0.00 40 1017.8
20260506164942 51 237 2.6 5.2 0.00 0.00 0.00 40 1018.0
20260506164439 50 256 3.5 5.2 0.00 0.00 0.00 41 1018.1
20260506163937 50 322 3.5 4.3 0.00 0.00 0.00 41 1018.0
20260506163432 50 307 0.9 0.9 0.00 0.00 0.00 40 1018.0
20260506162927 51 326 2.6 5.2 0.00 0.00 0.00 39 1018.0
20260506162425 51 306 2.6 2.6 0.00 0.00 0.00 41 1018.1
20260506161922 50 256 2.6 2.6 0.00 0.00 0.00 41 1017.8
20260506161420 50 291 4.3 6.1 0.00 0.00 0.00 40 1018.0
20260506160917 50 292 3.5 5.2 0.00 0.00 0.00 40 1017.9
20260506160414 51 340 2.6 5.2 0.00 0.00 0.00 39 1017.9
20260506155912 51 295 4.3 7.0 0.00 0.00 0.00 41 1017.9
20260506155409 50 228 4.3 7.0 0.00 0.00 0.00 42 1017.8
20260506153531 51 288 0.9 1.7 0.00 0.00 0.00 42 1018.1
20260506153028 50 310 0.0 0.9 0.00 0.00 0.00 44 1017.8
20260506152525 50 314 1.7 1.7 0.00 0.00 0.00 43 1018.0
20260506152024 50 298 2.6 4.3 0.00 0.00 0.00 43 1017.9
20260506151521 50 243 2.6 2.6 0.00 0.00 0.00 43 1017.8
20260506151018 49 222 4.3 5.2 0.00 0.00 0.00 44 1018.0
20260506150514 49 291 1.7 2.6 0.00 0.00 0.00 45 1017.8
20260506150011 48 235 0.9 1.7 0.00 0.00 0.00 48 1017.6
20260506145508 48 278 2.6 4.3 0.00 0.00 0.00 46 1017.9
20260506145005 49 275 0.9 1.7 0.00 0.00 0.00 46 1017.9
20260506144502 48 333 1.7 1.7 0.00 0.00 0.00 47 1017.8
20260506143959 48 323 1.7 1.7 0.00 0.00 0.00 51 1017.7
20260506143456 47 324 1.7 1.7 0.00 0.00 0.00 49 1017.7
20260506142955 47 326 2.6 2.6 0.00 0.00 0.00 48 1018.1
20260506142452 46 322 0.9 0.9 0.00 0.00 0.00 49 1017.8
20260506141950 46 317 0.0 0.9 0.00 0.00 0.00 50 1017.9
20260506141448 46 315 1.7 1.7 0.00 0.00 0.00 53 1017.9
20260506140947 45 324 0.9 1.7 0.00 0.00 0.00 52 1017.7
20260506140443 45 329 0.9 0.9 0.00 0.00 0.00 55 1017.5
20260506135939 44 312 1.7 2.6 0.00 0.00 0.00 56 1017.6
20260506135437 44 289 1.7 2.6 0.00 0.00 0.00 58 1017.7
20260506134933 44 324 0.9 0.9 0.00 0.00 0.00 55 1017.7
20260506134429 44 315 0.9 0.9 0.00 0.00 0.00 57 1017.6
20260506133926 43 323 0.9 0.9 0.00 0.00 0.00 59 1017.5
20260506133423 43 319 0.0 0.9 0.00 0.00 0.00 59 1017.5
20260506132920 43 316 1.7 1.7 0.00 0.00 0.00 60 1017.4
20260506132417 42 327 0.9 0.9 0.00 0.00 0.00 64 1017.5
20260506131914 41 323 0.9 0.9 0.00 0.00 0.00 65 1017.2
20260506131411 41 322 0.9 0.9 0.00 0.00 0.00 66 1017.3
20260506130908 40 323 0.0 0.9 0.00 0.00 0.00 69 1017.2
20260506130404 40 323 1.7 1.7 0.00 0.00 0.00 69 1017.3
20260506125902 40 324 0.0 0.9 0.00 0.00 0.00 71 1017.2
20260506125401 39 324 1.7 2.6 0.00 0.00 0.00 69 1017.3
20260506124858 38 322 0.9 1.7 0.00 0.00 0.00 71 1017.0
20260506124355 38 321 0.0 0.9 0.00 0.00 0.00 72 1017.1
20260506123853 37 320 1.7 1.7 0.00 0.00 0.00 72 1017.2
20260506123351 37 320 0.9 1.7 0.00 0.00 0.00 74 1017.0
20260506122848 37 320 0.9 0.9 0.00 0.00 0.00 75 1016.8
20260506122345 37 320 0.9 0.9 0.00 0.00 0.00 75 1016.8
20260506121843 36 320 0.9 0.9 0.00 0.00 0.00 76 1016.7
20260506121340 36 320 0.0 0.0 0.00 0.00 0.00 83 1016.7
20260506120837 36 320 0.0 0.0 0.00 0.00 0.00 85 1016.6
20260506120334 36 320 0.0 0.0 0.00 0.00 0.00 84 1016.6
20260506115831 36 320 0.0 0.0 0.00 0.00 0.00 83 1016.5
20260506115330 36 320 0.0 0.0 0.00 0.00 0.00 81 1016.3
20260506114828 36 320 0.0 0.0 0.00 0.00 0.00 80 1016.2
20260506114325 36 320 0.0 0.0 0.00 0.00 0.00 79 1016.2
20260506113824 37 320 0.0 0.0 0.00 0.00 0.00 79 1016.4
20260506113321 37 320 0.9 0.9 0.00 0.00 0.00 75 1016.1
20260506112817 37 319 0.0 0.0 0.00 0.00 0.00 77 1016.3
20260506112314 37 319 0.0 0.0 0.00 0.00 0.00 75 1015.9
20260506111812 37 319 0.0 0.9 0.00 0.00 0.00 76 1016.1
20260506111310 37 319 0.0 0.0 0.00 0.00 0.00 74 1016.1
20260506110807 37 319 0.9 0.9 0.00 0.00 0.00 73 1016.1
20260506110304 37 319 0.9 1.7 0.00 0.00 0.00 74 1016.0
20260506105800 38 319 0.0 0.0 0.00 0.00 0.00 75 1015.8
20260506105257 38 319 0.0 0.0 0.00 0.00 0.00 74 1015.6
20260506104755 38 319 0.0 0.0 0.00 0.00 0.00 73 1015.4
20260506104253 38 319 0.0 0.0 0.00 0.00 0.00 74 1015.8
20260506103750 38 319 0.0 0.0 0.00 0.00 0.00 74 1015.6
20260506103247 38 319 0.0 0.0 0.00 0.00 0.00 73 1015.6
20260506102745 38 319 0.0 0.0 0.00 0.00 0.00 73 1015.7
20260506102243 38 319 0.9 0.9 0.00 0.00 0.00 73 1015.4
20260506101739 38 319 0.0 0.9 0.00 0.00 0.00 73 1015.7
20260506101235 38 319 0.0 0.0 0.00 0.00 0.00 72 1015.5
20260506100734 38 319 0.0 0.0 0.00 0.00 0.00 72 1015.4
20260506100232 38 319 0.9 0.9 0.00 0.00 0.00 73 1015.5
20260506095730 38 319 0.0 0.0 0.00 0.00 0.00 74 1015.4
20260506095226 39 320 0.0 0.0 0.00 0.00 0.00 71 1015.3
20260506094723 39 319 0.0 0.9 0.00 0.00 0.00 71 1015.3
20260506094221 39 319 0.0 0.0 0.00 0.00 0.00 70 1015.0